Volver al catálogo

DELTA 1 DEB

ActivoSSO
NORAD 17765·DEBRIS·🇺🇸 United States

Lanzado Mar 5, 1978 desde Vandenberg Space Force Base

Loading…

Próximos Pases (próximas 24 horas)

TLE

ActualizadoSource: Space-Track

Época: Sep 13, 2026, 18:27 UTC

1 17765U 78026GX  26256.76910771 -.00000004  00000-0  26998-4 0  9991
2 17765  99.0302 350.4278 0042197  54.6909  76.2227 13.98914694112347

Sigue DELTA 1 DEB en tiempo real con AllMySat

Download on the App Store